Time,TemperatureF,DewpointF,PressureIn,WindDirection,WindDirectionDegrees,WindSpeedMPH,WindSpeedGustMPH,Humidity,HourlyPrecipIn,Conditions,Clouds,dailyrainin,SoftwareType,DateUTC
2013-09-25 00:01:00,64.2,41.9,29.18,ESE,113,4.9,7.6,44,0.00,,,0.00,VWS V13.01,2013-09-25 04:01:00,
2013-09-25 00:06:00,65.1,39.6,29.18,ENE,64,6.3,7.6,39,0.00,,,0.00,VWS V13.01,2013-09-25 04:06:00,
2013-09-25 00:11:00,65.3,37.0,29.18,SSE,160,5.8,7.6,35,0.00,,,0.00,VWS V13.01,2013-09-25 04:11:00,
2013-09-25 00:16:00,64.2,36.7,29.18,SE,139,4.0,5.4,36,0.00,,,0.00,VWS V13.01,2013-09-25 04:16:00,
2013-09-25 00:21:00,63.7,38.9,29.18,SE,138,4.0,6.3,40,0.00,,,0.00,VWS V13.01,2013-09-25 04:21:00,
2013-09-25 00:26:00,63.5,40.6,29.18,ESE,106,5.4,5.8,43,0.00,,,0.00,VWS V13.01,2013-09-25 04:26:00,
2013-09-25 00:31:00,63.7,42.0,29.18,SSE,147,3.6,7.6,45,0.00,,,0.00,VWS V13.01,2013-09-25 04:31:00,
2013-09-25 00:36:00,63.9,42.1,29.18,ESE,123,4.0,6.3,45,0.00,,,0.00,VWS V13.01,2013-09-25 04:36:00,
2013-09-25 00:41:00,64.0,41.7,29.18,SSE,147,4.9,5.8,44,0.00,,,0.00,VWS V13.01,2013-09-25 04:41:00,
2013-09-25 00:46:00,64.2,41.3,29.18,SSE,153,4.9,5.4,43,0.00,,,0.00,VWS V13.01,2013-09-25 04:46:00,
2013-09-25 00:51:00,64.2,40.7,29.18,SSE,150,4.0,5.4,42,0.00,,,0.00,VWS V13.01,2013-09-25 04:51:00,
2013-09-25 00:56:00,63.9,39.7,29.18,SE,130,3.6,5.4,41,0.00,,,0.00,VWS V13.01,2013-09-25 04:56:00,
2013-09-25 01:01:00,63.7,39.6,29.18,SE,134,2.7,5.8,41,0.00,,,0.00,VWS V13.01,2013-09-25 05:01:00,
2013-09-25 01:06:00,63.5,40.6,29.18,SE,128,3.6,4.0,43,0.00,,,0.00,VWS V13.01,2013-09-25 05:06:00,
2013-09-25 01:11:00,63.9,42.1,29.18,SE,142,6.3,6.3,45,0.00,,,0.00,VWS V13.01,2013-09-25 05:11:00,
2013-09-25 01:16:00,64.9,40.7,29.18,East,88,4.5,8.1,41,0.00,,,0.00,VWS V13.01,2013-09-25 05:16:00,
2013-09-25 01:21:00,65.8,38.2,29.18,SE,138,5.8,6.3,36,0.00,,,0.00,VWS V13.01,2013-09-25 05:21:00,
2013-09-25 01:26:00,66.0,36.9,29.18,SE,127,5.4,6.3,34,0.00,,,0.00,VWS V13.01,2013-09-25 05:26:00,
2013-09-25 01:31:00,65.8,36.7,29.15,ESE,108,5.4,5.4,34,0.00,,,0.00,VWS V13.01,2013-09-25 05:31:00,
2013-09-25 01:36:00,65.8,37.5,29.15,NE,38,5.4,6.3,35,0.00,,,0.00,VWS V13.01,2013-09-25 05:36:00,
2013-09-25 01:41:00,65.7,36.6,29.15,NNE,22,8.3,8.3,34,0.00,,,0.00,VWS V13.01,2013-09-25 05:41:00,
2013-09-25 01:46:00,65.7,37.3,29.15,SE,135,4.5,5.8,35,0.00,,,0.00,VWS V13.01,2013-09-25 05:46:00,
2013-09-25 01:51:00,65.5,36.4,29.15,ESE,122,4.5,7.6,34,0.00,,,0.00,VWS V13.01,2013-09-25 05:51:00,
2013-09-25 01:56:00,65.5,37.1,29.15,SSE,156,5.4,8.1,35,0.00,,,0.00,VWS V13.01,2013-09-25 05:56:00,
2013-09-25 02:01:00,64.9,36.7,29.18,SE,140,5.4,5.8,35,0.00,,,0.00,VWS V13.01,2013-09-25 06:01:00,
2013-09-25 02:06:00,64.8,37.9,29.18,East,83,5.4,6.7,37,0.00,,,0.00,VWS V13.01,2013-09-25 06:06:00,
2013-09-25 02:11:00,64.9,38.1,29.18,SE,128,4.9,7.6,37,0.00,,,0.00,VWS V13.01,2013-09-25 06:11:00,
2013-09-25 02:16:00,65.3,37.7,29.15,SE,128,3.6,7.6,36,0.00,,,0.00,VWS V13.01,2013-09-25 06:16:00,
2013-09-25 02:21:00,65.3,37.0,29.15,SE,146,5.4,6.3,35,0.00,,,0.00,VWS V13.01,2013-09-25 06:21:00,
2013-09-25 02:26:00,64.6,36.3,29.15,SE,128,5.4,5.4,35,0.00,,,0.00,VWS V13.01,2013-09-25 06:26:00,
2013-09-25 02:31:00,64.0,37.9,29.15,SE,130,4.0,5.4,38,0.00,,,0.00,VWS V13.01,2013-09-25 06:31:00,
2013-09-25 02:36:00,63.7,39.6,29.15,SSE,147,5.8,5.8,41,0.00,,,0.00,VWS V13.01,2013-09-25 06:36:00,
2013-09-25 02:41:00,63.9,40.3,29.15,SE,124,3.1,7.6,42,0.00,,,0.00,VWS V13.01,2013-09-25 06:41:00,
2013-09-25 02:46:00,64.6,39.7,29.15,SSE,159,7.6,7.6,40,0.00,,,0.00,VWS V13.01,2013-09-25 06:46:00,
2013-09-25 02:51:00,65.1,38.2,29.15,East,84,5.4,8.3,37,0.00,,,0.00,VWS V13.01,2013-09-25 06:51:00,
2013-09-25 02:56:00,65.5,37.1,29.15,ESE,119,8.7,9.2,35,0.00,,,0.00,VWS V13.01,2013-09-25 06:56:00,
2013-09-25 03:01:00,65.7,36.6,29.15,NE,53,3.6,11.0,34,0.00,,,0.00,VWS V13.01,2013-09-25 07:01:00,
2013-09-25 03:06:00,65.8,36.7,29.15,SE,128,4.0,4.0,34,0.00,,,0.00,VWS V13.01,2013-09-25 07:06:00,
2013-09-25 03:11:00,65.7,36.6,29.15,ESE,108,2.7,5.8,34,0.00,,,0.00,VWS V13.01,2013-09-25 07:11:00,
2013-09-25 03:16:00,65.7,36.6,29.12,NE,50,5.8,8.3,34,0.00,,,0.00,VWS V13.01,2013-09-25 07:16:00,
2013-09-25 03:21:00,65.5,36.4,29.12,ESE,115,3.6,6.3,34,0.00,,,0.00,VWS V13.01,2013-09-25 07:21:00,
2013-09-25 03:26:00,64.8,36.5,29.12,ESE,106,4.0,8.3,35,0.00,,,0.00,VWS V13.01,2013-09-25 07:26:00,
2013-09-25 03:32:00,64.6,37.0,29.12,SE,137,6.3,6.3,36,0.00,,,0.00,VWS V13.01,2013-09-25 07:32:00,
2013-09-25 03:37:00,64.4,37.6,29.12,SE,128,8.1,8.1,37,0.00,,,0.00,VWS V13.01,2013-09-25 07:37:00,
2013-09-25 03:42:00,64.0,38.6,29.12,SSE,147,3.6,8.1,39,0.00,,,0.00,VWS V13.01,2013-09-25 07:42:00,
2013-09-25 03:47:00,63.9,39.1,29.15,SE,135,5.4,5.8,40,0.00,,,0.00,VWS V13.01,2013-09-25 07:47:00,
2013-09-25 03:52:00,63.9,39.7,29.15,SSE,149,7.6,7.6,41,0.00,,,0.00,VWS V13.01,2013-09-25 07:52:00,
2013-09-25 03:57:00,63.9,40.3,29.15,ESE,106,3.1,6.3,42,0.00,,,0.00,VWS V13.01,2013-09-25 07:57:00,
2013-09-25 04:02:00,64.0,39.9,29.15,SE,145,3.1,5.8,41,0.00,,,0.00,VWS V13.01,2013-09-25 08:02:00,
2013-09-25 04:07:00,64.0,39.9,29.15,SE,124,5.4,5.4,41,0.00,,,0.00,VWS V13.01,2013-09-25 08:07:00,
2013-09-25 04:12:00,64.2,40.0,29.15,SE,125,3.1,5.4,41,0.00,,,0.00,VWS V13.01,2013-09-25 08:12:00,
2013-09-25 04:17:00,64.4,39.6,29.15,East,95,4.0,6.3,40,0.00,,,0.00,VWS V13.01,2013-09-25 08:17:00,
2013-09-25 04:22:00,64.6,38.4,29.15,East,93,5.8,6.3,38,0.00,,,0.00,VWS V13.01,2013-09-25 08:22:00,
2013-09-25 04:27:00,64.8,37.9,29.15,ESE,111,2.2,5.4,37,0.00,,,0.00,VWS V13.01,2013-09-25 08:27:00,
2013-09-25 04:32:00,64.9,38.1,29.15,South,183,6.3,6.3,37,0.00,,,0.00,VWS V13.01,2013-09-25 08:32:00,
2013-09-25 04:37:00,63.9,37.1,29.15,SE,136,3.1,5.4,37,0.00,,,0.00,VWS V13.01,2013-09-25 08:37:00,
2013-09-25 04:42:00,63.3,38.0,29.15,SE,134,2.7,3.1,39,0.00,,,0.00,VWS V13.01,2013-09-25 08:42:00,
2013-09-25 04:47:00,63.1,40.3,29.15,East,86,5.4,5.4,43,0.00,,,0.00,VWS V13.01,2013-09-25 08:47:00,
2013-09-25 04:52:00,63.7,42.0,29.15,ENE,69,5.8,6.7,45,0.00,,,0.00,VWS V13.01,2013-09-25 08:52:00,
2013-09-25 04:57:00,64.2,41.9,29.15,ESE,107,3.6,4.9,44,0.00,,,0.00,VWS V13.01,2013-09-25 08:57:00,
2013-09-25 05:02:00,64.4,40.8,29.15,ENE,62,0.0,5.4,42,0.00,,,0.00,VWS V13.01,2013-09-25 09:02:00,
2013-09-25 05:07:00,64.6,39.7,29.15,East,90,0.0,2.2,40,0.00,,,0.00,VWS V13.01,2013-09-25 09:07:00,
2013-09-25 05:12:00,64.6,39.7,29.15,SE,124,3.1,3.1,40,0.00,,,0.00,VWS V13.01,2013-09-25 09:12:00,
2013-09-25 05:17:00,64.6,39.1,29.15,ESE,119,2.7,3.1,39,0.00,,,0.00,VWS V13.01,2013-09-25 09:17:00,
2013-09-25 05:22:00,64.6,39.1,29.15,ESE,102,3.1,3.6,39,0.00,,,0.00,VWS V13.01,2013-09-25 09:22:00,
2013-09-25 05:27:00,64.6,39.1,29.15,SSW,208,3.1,3.1,39,0.00,,,0.00,VWS V13.01,2013-09-25 09:27:00,
2013-09-25 05:32:00,64.0,39.2,29.15,South,177,0.0,2.7,40,0.00,,,0.00,VWS V13.01,2013-09-25 09:32:00,
2013-09-25 05:37:00,63.5,39.4,29.15,South,177,0.0,2.2,41,0.00,,,0.00,VWS V13.01,2013-09-25 09:37:00,
2013-09-25 05:42:00,63.1,39.7,29.15,South,177,0.0,0.0,42,0.00,,,0.00,VWS V13.01,2013-09-25 09:42:00,
2013-09-25 05:47:00,63.1,40.9,29.15,SE,128,5.8,5.8,44,0.00,,,0.00,VWS V13.01,2013-09-25 09:47:00,
2013-09-25 05:52:00,63.5,42.4,29.15,SE,128,7.6,7.6,46,0.00,,,0.00,VWS V13.01,2013-09-25 09:52:00,
2013-09-25 05:57:00,63.9,42.1,29.15,SE,138,4.0,5.8,45,0.00,,,0.00,VWS V13.01,2013-09-25 09:57:00,
2013-09-25 06:02:00,64.2,40.7,29.12,SE,138,6.3,8.1,42,0.00,,,0.00,VWS V13.01,2013-09-25 10:02:00,
2013-09-25 06:07:00,64.0,39.9,29.12,SE,132,6.3,6.7,41,0.00,,,0.00,VWS V13.01,2013-09-25 10:07:00,
2013-09-25 06:12:00,64.0,39.9,29.12,ESE,103,11.0,11.0,41,0.00,,,0.00,VWS V13.01,2013-09-25 10:12:00,
2013-09-25 06:17:00,64.4,38.9,29.12,SSE,154,4.9,7.6,39,0.00,,,0.00,VWS V13.01,2013-09-25 10:17:00,
2013-09-25 06:22:00,64.0,39.2,29.12,South,182,3.1,3.6,40,0.00,,,0.00,VWS V13.01,2013-09-25 10:22:00,
2013-09-25 06:27:00,63.5,39.4,29.12,SSW,194,3.6,3.6,41,0.00,,,0.00,VWS V13.01,2013-09-25 10:27:00,
2013-09-25 06:32:00,63.1,39.7,29.15,SSE,151,2.7,4.0,42,0.00,,,0.00,VWS V13.01,2013-09-25 10:32:00,
2013-09-25 06:37:00,63.0,40.1,29.15,SSE,151,2.2,2.7,43,0.00,,,0.00,VWS V13.01,2013-09-25 10:37:00,
2013-09-25 06:42:00,63.0,41.3,29.15,ENE,61,3.6,4.0,45,0.00,,,0.00,VWS V13.01,2013-09-25 10:42:00,
2013-09-25 06:47:00,63.0,42.4,29.15,East,92,2.7,3.6,47,0.00,,,0.00,VWS V13.01,2013-09-25 10:47:00,
2013-09-25 06:52:00,63.1,43.2,29.15,ENE,67,0.0,0.0,48,0.00,,,0.00,VWS V13.01,2013-09-25 10:52:00,
2013-09-25 06:57:00,63.1,42.6,29.15,ENE,67,0.0,0.0,47,0.00,,,0.00,VWS V13.01,2013-09-25 10:57:00,
2013-09-25 07:02:00,63.0,42.4,29.15,ENE,67,0.0,0.0,47,0.00,,,0.00,VWS V13.01,2013-09-25 11:02:00,
2013-09-25 07:07:00,63.0,42.4,29.15,North,10,2.2,2.2,47,0.00,,,0.00,VWS V13.01,2013-09-25 11:07:00,
2013-09-25 07:12:00,63.0,42.4,29.15,SSE,147,3.1,4.0,47,0.00,,,0.00,VWS V13.01,2013-09-25 11:12:00,
2013-09-25 07:17:00,62.8,42.3,29.15,ESE,115,2.2,4.0,47,0.00,,,0.00,VWS V13.01,2013-09-25 11:17:00,
2013-09-25 07:22:00,62.6,43.2,29.15,SE,124,2.2,2.7,49,0.00,,,0.00,VWS V13.01,2013-09-25 11:22:00,
2013-09-25 07:27:00,62.6,43.2,29.15,SE,124,2.7,2.7,49,0.00,,,0.00,VWS V13.01,2013-09-25 11:27:00,
2013-09-25 07:32:00,62.4,43.5,29.15,SE,140,2.7,2.7,50,0.00,,,0.00,VWS V13.01,2013-09-25 11:32:00,
2013-09-25 07:37:00,62.4,43.5,29.15,SE,140,0.0,0.0,50,0.00,,,0.00,VWS V13.01,2013-09-25 11:37:00,
2013-09-25 07:42:00,62.4,44.1,29.15,SE,140,0.0,2.2,51,0.00,,,0.00,VWS V13.01,2013-09-25 11:42:00,
2013-09-25 07:46:00,62.4,44.1,29.15,SSW,213,0.0,0.0,51,0.00,,,0.00,VWS V13.01,2013-09-25 11:46:00,
2013-09-25 07:51:00,62.4,44.1,29.15,SSW,211,0.0,0.0,51,0.00,,,0.00,VWS V13.01,2013-09-25 11:51:00,
2013-09-25 07:56:00,62.4,44.6,29.15,SE,138,0.0,0.0,52,0.00,,,0.00,VWS V13.01,2013-09-25 11:56:00,
2013-09-25 08:01:00,62.4,44.6,29.15,SE,138,0.0,0.0,52,0.00,,,0.00,VWS V13.01,2013-09-25 12:01:00,
2013-09-25 08:06:00,62.4,45.1,29.15,SE,139,0.0,3.1,53,0.00,,,0.00,VWS V13.01,2013-09-25 12:06:00,
2013-09-25 08:11:00,62.4,45.1,29.15,SE,142,2.7,3.6,53,0.00,,,0.00,VWS V13.01,2013-09-25 12:11:00,
2013-09-25 08:16:00,62.6,45.7,29.15,ESE,116,3.1,4.9,54,0.00,,,0.00,VWS V13.01,2013-09-25 12:16:00,
2013-09-25 08:21:00,62.6,47.2,29.15,SE,132,4.5,5.4,57,0.00,,,0.00,VWS V13.01,2013-09-25 12:21:00,
2013-09-25 08:26:00,62.6,47.6,29.15,SE,128,3.6,3.6,58,0.00,,,0.00,VWS V13.01,2013-09-25 12:26:00,
2013-09-25 08:27:00,62.8,47.8,29.15,SE,134,3.1,3.6,58,0.00,,,0.00,VWS V13.01,2013-09-25 12:27:00,
2013-09-25 08:32:00,62.8,47.8,29.15,SE,142,3.1,5.4,58,0.00,,,0.00,VWS V13.01,2013-09-25 12:32:00,
2013-09-25 08:37:00,62.8,47.8,29.15,East,85,2.7,5.4,58,0.00,,,0.00,VWS V13.01,2013-09-25 12:37:00,
2013-09-25 08:42:00,63.0,48.0,29.15,East,98,4.0,5.8,58,0.00,,,0.00,VWS V13.01,2013-09-25 12:42:00,
2013-09-25 08:47:00,63.1,48.1,29.15,SE,135,2.7,4.0,58,0.00,,,0.00,VWS V13.01,2013-09-25 12:47:00,
2013-09-25 08:52:00,63.5,48.0,29.15,SE,133,4.9,5.4,57,0.00,,,0.00,VWS V13.01,2013-09-25 12:52:00,
2013-09-25 08:57:00,63.7,48.2,29.15,ESE,116,3.1,5.8,57,0.00,,,0.00,VWS V13.01,2013-09-25 12:57:00,
2013-09-25 09:02:00,63.7,46.7,29.15,ESE,104,0.0,4.0,54,0.00,,,0.00,VWS V13.01,2013-09-25 13:02:00,
2013-09-25 09:07:00,63.9,46.4,29.15,ESE,106,4.0,5.8,53,0.00,,,0.00,VWS V13.01,2013-09-25 13:07:00,
2013-09-25 09:12:00,64.0,45.0,29.15,ESE,117,2.7,4.0,50,0.00,,,0.00,VWS V13.01,2013-09-25 13:12:00,
2013-09-25 09:17:00,64.4,44.8,29.15,SSE,156,2.7,4.9,49,0.00,,,0.00,VWS V13.01,2013-09-25 13:17:00,
2013-09-25 09:22:00,64.8,45.2,29.15,SE,145,3.6,4.9,49,0.00,,,0.00,VWS V13.01,2013-09-25 13:22:00,
2013-09-25 09:27:00,65.5,45.8,29.15,SSE,157,4.9,6.3,49,0.00,,,0.00,VWS V13.01,2013-09-25 13:27:00,
2013-09-25 09:32:00,66.0,44.7,29.15,SE,138,0.0,3.1,46,0.00,,,0.00,VWS V13.01,2013-09-25 13:32:00,
2013-09-25 09:37:00,66.7,42.9,29.15,SE,144,3.1,6.3,42,0.00,,,0.00,VWS V13.01,2013-09-25 13:37:00,
2013-09-25 09:42:00,66.9,39.1,29.15,SE,128,3.1,6.3,36,0.00,,,0.00,VWS V13.01,2013-09-25 13:42:00,
2013-09-25 09:47:00,66.9,37.7,29.18,SE,142,2.7,6.3,34,0.00,,,0.00,VWS V13.01,2013-09-25 13:47:00,
2013-09-25 09:52:00,66.6,37.3,29.18,SSE,151,2.7,4.9,34,0.00,,,0.00,VWS V13.01,2013-09-25 13:52:00,
2013-09-25 09:57:00,66.6,38.1,29.18,NE,54,4.0,4.0,35,0.00,,,0.00,VWS V13.01,2013-09-25 13:57:00,
2013-09-25 10:02:00,66.6,38.1,29.15,SE,130,0.0,4.0,35,0.00,,,0.00,VWS V13.01,2013-09-25 14:02:00,
2013-09-25 10:07:00,66.7,38.2,29.15,East,93,3.6,5.4,35,0.00,,,0.00,VWS V13.01,2013-09-25 14:07:00,
2013-09-25 10:12:00,66.9,38.4,29.15,SE,146,4.0,4.0,35,0.00,,,0.00,VWS V13.01,2013-09-25 14:12:00,
2013-09-25 10:17:00,67.1,38.6,29.15,SE,142,2.7,5.4,35,0.00,,,0.00,VWS V13.01,2013-09-25 14:17:00,
2013-09-25 10:22:00,67.1,38.6,29.15,ESE,111,6.3,6.3,35,0.00,,,0.00,VWS V13.01,2013-09-25 14:22:00,
2013-09-25 10:27:00,66.9,39.1,29.15,ESE,121,4.9,5.8,36,0.00,,,0.00,VWS V13.01,2013-09-25 14:27:00,
2013-09-25 10:32:00,66.9,39.1,29.15,SSE,147,4.9,5.8,36,0.00,,,0.00,VWS V13.01,2013-09-25 14:32:00,
2013-09-25 10:37:00,66.9,39.8,29.15,SE,131,4.0,4.9,37,0.00,,,0.00,VWS V13.01,2013-09-25 14:37:00,
2013-09-25 10:42:00,67.1,39.3,29.15,SE,132,7.6,8.7,36,0.00,,,0.00,VWS V13.01,2013-09-25 14:42:00,
2013-09-25 10:47:00,67.3,38.7,29.18,SE,129,7.6,8.3,35,0.00,,,0.00,VWS V13.01,2013-09-25 14:47:00,
2013-09-25 10:52:00,67.3,38.7,29.18,ESE,121,5.8,5.8,35,0.00,,,0.00,VWS V13.01,2013-09-25 14:52:00,
2013-09-25 10:57:00,67.3,38.7,29.18,SSE,159,3.1,4.0,35,0.00,,,0.00,VWS V13.01,2013-09-25 14:57:00,
2013-09-25 11:02:00,67.6,39.0,29.18,SE,144,6.3,6.3,35,0.00,,,0.00,VWS V13.01,2013-09-25 15:02:00,
2013-09-25 11:07:00,67.6,38.3,29.18,SE,146,7.6,8.3,34,0.00,,,0.00,VWS V13.01,2013-09-25 15:07:00,
2013-09-25 11:12:00,67.8,38.5,29.18,SSE,164,5.4,8.1,34,0.00,,,0.00,VWS V13.01,2013-09-25 15:12:00,
2013-09-25 11:17:00,67.6,37.5,29.18,SSE,150,5.4,6.7,33,0.00,,,0.00,VWS V13.01,2013-09-25 15:17:00,
2013-09-25 11:22:00,67.6,38.3,29.18,SSE,153,5.8,5.8,34,0.00,,,0.00,VWS V13.01,2013-09-25 15:22:00,
2013-09-25 11:27:00,67.8,38.5,29.18,South,191,0.0,5.4,34,0.00,,,0.00,VWS V13.01,2013-09-25 15:27:00,
2013-09-25 11:32:00,67.8,37.7,29.18,SE,137,6.3,7.2,33,0.00,,,0.00,VWS V13.01,2013-09-25 15:32:00,
2013-09-25 11:37:00,68.0,37.8,29.18,ESE,118,3.6,4.9,33,0.00,,,0.00,VWS V13.01,2013-09-25 15:37:00,
2013-09-25 11:42:00,68.2,38.0,29.18,SE,129,0.0,5.8,33,0.00,,,0.00,VWS V13.01,2013-09-25 15:42:00,
2013-09-25 11:47:00,68.5,38.3,29.15,SE,133,5.4,5.4,33,0.00,,,0.00,VWS V13.01,2013-09-25 15:47:00,
2013-09-25 11:52:00,68.7,37.7,29.15,SE,132,4.0,6.3,32,0.00,,,0.00,VWS V13.01,2013-09-25 15:52:00,
2013-09-25 11:57:00,68.7,37.7,29.15,SSE,158,6.3,8.1,32,0.00,,,0.00,VWS V13.01,2013-09-25 15:57:00,
2013-09-25 12:02:00,68.7,37.7,29.18,ESE,111,5.8,7.6,32,0.00,,,0.00,VWS V13.01,2013-09-25 16:02:00,
2013-09-25 12:07:00,68.7,37.7,29.18,SE,146,4.0,8.3,32,0.00,,,0.00,VWS V13.01,2013-09-25 16:07:00,
2013-09-25 12:12:00,68.9,38.6,29.18,SE,133,3.6,6.3,33,0.00,,,0.00,VWS V13.01,2013-09-25 16:12:00,
2013-09-25 12:17:00,69.6,39.3,29.18,ESE,123,4.9,8.7,33,0.00,,,0.00,VWS V13.01,2013-09-25 16:17:00,
2013-09-25 12:22:00,70.0,38.0,29.18,ESE,117,3.6,5.8,31,0.00,,,0.00,VWS V13.01,2013-09-25 16:22:00,
2013-09-25 12:27:00,70.2,38.1,29.18,SE,146,5.4,5.8,31,0.00,,,0.00,VWS V13.01,2013-09-25 16:27:00,
2013-09-25 12:32:00,70.5,36.8,29.18,ESE,119,4.9,7.6,29,0.00,,,0.00,VWS V13.01,2013-09-25 16:32:00,
2013-09-25 12:37:00,70.9,37.1,29.18,SE,143,5.4,5.4,29,0.00,,,0.00,VWS V13.01,2013-09-25 16:37:00,
2013-09-25 12:42:00,71.1,37.2,29.18,East,86,4.0,4.0,29,0.00,,,0.00,VWS V13.01,2013-09-25 16:42:00,
2013-09-25 12:47:00,71.4,35.7,29.15,SE,127,3.1,5.8,27,0.00,,,0.00,VWS V13.01,2013-09-25 16:47:00,
2013-09-25 12:52:00,72.0,35.2,29.15,SSW,210,4.0,4.0,26,0.00,,,0.00,VWS V13.01,2013-09-25 16:52:00,
2013-09-25 12:57:00,72.0,34.2,29.15,NNW,342,3.1,3.1,25,0.00,,,0.00,VWS V13.01,2013-09-25 16:57:00,
2013-09-25 13:02:00,72.0,34.2,29.15,NNW,335,0.0,0.0,25,0.00,,,0.00,VWS V13.01,2013-09-25 17:02:00,
2013-09-25 13:07:00,72.5,33.7,29.15,SE,145,0.0,4.0,24,0.00,,,0.00,VWS V13.01,2013-09-25 17:07:00,
2013-09-25 13:12:00,72.5,33.7,29.15,South,184,2.7,4.0,24,0.00,,,0.00,VWS V13.01,2013-09-25 17:12:00,
2013-09-25 13:17:00,72.7,33.8,29.15,South,184,0.0,0.0,24,0.00,,,0.00,VWS V13.01,2013-09-25 17:17:00,
2013-09-25 13:22:00,72.9,32.9,29.15,ENE,73,0.0,3.1,23,0.00,,,0.00,VWS V13.01,2013-09-25 17:22:00,
2013-09-25 13:27:00,72.9,32.9,29.15,SSW,207,2.7,2.7,23,0.00,,,0.00,VWS V13.01,2013-09-25 17:27:00,
2013-09-25 13:32:00,73.0,33.1,29.15,ESE,114,2.2,4.0,23,0.00,,,0.00,VWS V13.01,2013-09-25 17:32:00,
2013-09-25 13:37:00,73.0,32.0,29.15,ESE,110,5.8,6.3,22,0.00,,,0.00,VWS V13.01,2013-09-25 17:37:00,
2013-09-25 13:42:00,72.9,32.9,29.15,ESE,122,7.6,8.3,23,0.00,,,0.00,VWS V13.01,2013-09-25 17:42:00,
2013-09-25 13:47:00,72.5,32.6,29.15,East,93,5.4,8.3,23,0.00,,,0.00,VWS V13.01,2013-09-25 17:47:00,
2013-09-25 13:52:00,72.0,33.2,29.15,East,95,4.9,6.3,24,0.00,,,0.00,VWS V13.01,2013-09-25 17:52:00,
2013-09-25 13:57:00,71.6,32.9,29.15,ESE,116,5.8,5.8,24,0.00,,,0.00,VWS V13.01,2013-09-25 17:57:00,
2013-09-25 14:02:00,71.6,34.0,29.15,South,169,4.0,6.3,25,0.00,,,0.00,VWS V13.01,2013-09-25 18:02:00,
2013-09-25 14:07:00,71.6,34.0,29.15,SE,145,4.9,8.1,25,0.00,,,0.00,VWS V13.01,2013-09-25 18:07:00,
2013-09-25 14:12:00,71.4,33.8,29.15,SSE,164,7.6,8.7,25,0.00,,,0.00,VWS V13.01,2013-09-25 18:12:00,
2013-09-25 14:17:00,71.4,34.8,29.15,SE,133,6.3,7.6,26,0.00,,,0.00,VWS V13.01,2013-09-25 18:17:00,
2013-09-25 14:22:00,71.4,35.7,29.15,SE,141,8.1,8.1,27,0.00,,,0.00,VWS V13.01,2013-09-25 18:22:00,
2013-09-25 14:27:00,72.0,35.2,29.15,SE,139,4.9,8.1,26,0.00,,,0.00,VWS V13.01,2013-09-25 18:27:00,
2013-09-25 14:32:00,72.3,34.6,29.15,SSE,156,6.3,8.1,25,0.00,,,0.00,VWS V13.01,2013-09-25 18:32:00,
2013-09-25 14:37:00,72.5,35.7,29.15,SSE,152,4.0,6.3,26,0.00,,,0.00,VWS V13.01,2013-09-25 18:37:00,
2013-09-25 14:42:00,73.0,35.2,29.15,ESE,112,3.1,6.3,25,0.00,,,0.00,VWS V13.01,2013-09-25 18:42:00,
2013-09-25 14:47:00,73.6,34.6,29.12,SE,141,2.2,4.9,24,0.00,,,0.00,VWS V13.01,2013-09-25 18:47:00,
2013-09-25 14:52:00,73.9,32.7,29.12,East,101,0.0,5.8,22,0.00,,,0.00,VWS V13.01,2013-09-25 18:52:00,
2013-09-25 14:57:00,73.9,31.6,29.12,NE,48,4.0,8.7,21,0.00,,,0.00,VWS V13.01,2013-09-25 18:57:00,
2013-09-25 15:02:00,73.6,31.3,29.15,ENE,78,5.4,7.6,21,0.00,,,0.00,VWS V13.01,2013-09-25 19:02:00,
2013-09-25 15:07:00,73.6,31.3,29.15,ESE,115,3.6,7.2,21,0.00,,,0.00,VWS V13.01,2013-09-25 19:07:00,
2013-09-25 15:12:00,73.4,31.1,29.15,East,85,4.9,5.8,21,0.00,,,0.00,VWS V13.01,2013-09-25 19:12:00,
2013-09-25 15:17:00,73.6,31.3,29.15,ENE,77,5.8,5.8,21,0.00,,,0.00,VWS V13.01,2013-09-25 19:17:00,
2013-09-25 15:22:00,73.8,31.4,29.15,ENE,77,4.0,8.1,21,0.00,,,0.00,VWS V13.01,2013-09-25 19:22:00,
2013-09-25 15:27:00,73.8,31.4,29.15,East,94,2.7,6.3,21,0.00,,,0.00,VWS V13.01,2013-09-25 19:27:00,
2013-09-25 15:32:00,73.9,31.6,29.12,NNE,32,3.1,6.3,21,0.00,,,0.00,VWS V13.01,2013-09-25 19:32:00,
2013-09-25 15:37:00,73.9,27.8,29.12,NE,48,5.4,5.8,18,0.00,,,0.00,VWS V13.01,2013-09-25 19:37:00,
2013-09-25 15:42:00,74.1,27.9,29.12,SE,142,2.7,7.6,18,0.00,,,0.00,VWS V13.01,2013-09-25 19:42:00,
2013-09-25 15:47:00,74.7,28.4,29.12,East,100,8.1,8.1,18,0.00,,,0.00,VWS V13.01,2013-09-25 19:47:00,
2013-09-25 15:53:00,75.6,29.1,29.12,SSE,147,5.8,5.8,18,0.00,,,0.00,VWS V13.01,2013-09-25 19:53:00,
2013-09-25 15:58:00,76.5,25.4,29.12,ESE,106,3.6,6.3,15,0.00,,,0.00,VWS V13.01,2013-09-25 19:58:00,
2013-09-25 16:03:00,76.1,25.1,29.12,ENE,76,3.6,6.3,15,0.00,,,0.00,VWS V13.01,2013-09-25 20:03:00,
2013-09-25 16:08:00,75.9,25.0,29.12,ESE,111,3.1,6.3,15,0.00,,,0.00,VWS V13.01,2013-09-25 20:08:00,
2013-09-25 16:13:00,76.1,21.7,29.12,East,84,7.2,7.2,13,0.00,,,0.00,VWS V13.01,2013-09-25 20:13:00,
2013-09-25 16:18:00,76.1,21.7,29.12,SE,142,2.2,6.3,13,0.00,,,0.00,VWS V13.01,2013-09-25 20:18:00,
2013-09-25 16:23:00,75.9,21.6,29.12,ESE,114,2.7,8.1,13,0.00,,,0.00,VWS V13.01,2013-09-25 20:23:00,
2013-09-25 16:28:00,76.1,21.7,29.12,ESE,120,3.1,5.8,13,0.00,,,0.00,VWS V13.01,2013-09-25 20:28:00,
2013-09-25 16:33:00,76.5,22.0,29.12,NNE,30,3.6,5.4,13,0.00,,,0.00,VWS V13.01,2013-09-25 20:33:00,
2013-09-25 16:38:00,76.6,22.1,29.12,East,93,2.7,4.9,13,0.00,,,0.00,VWS V13.01,2013-09-25 20:38:00,
2013-09-25 16:43:00,76.6,22.1,29.12,NE,49,4.0,8.1,13,0.00,,,0.00,VWS V13.01,2013-09-25 20:43:00,
2013-09-25 16:48:00,75.9,21.6,29.12,ENE,58,3.1,6.3,13,0.00,,,0.00,VWS V13.01,2013-09-25 20:48:00,
2013-09-25 16:53:00,75.4,21.2,29.12,ENE,67,3.1,5.8,13,0.00,,,0.00,VWS V13.01,2013-09-25 20:53:00,
2013-09-25 16:58:00,75.0,20.9,29.12,East,87,3.6,5.4,13,0.00,,,0.00,VWS V13.01,2013-09-25 20:58:00,
2013-09-25 17:03:00,74.8,20.7,29.12,East,99,5.8,6.7,13,0.00,,,0.00,VWS V13.01,2013-09-25 21:03:00,
2013-09-25 17:09:00,74.7,20.6,29.12,ESE,107,5.8,8.3,13,0.00,,,0.00,VWS V13.01,2013-09-25 21:09:00,
2013-09-25 17:13:00,74.3,20.3,29.12,SE,138,3.1,5.4,13,0.00,,,0.00,VWS V13.01,2013-09-25 21:13:00,
2013-09-25 17:18:00,74.1,25.1,29.12,ESE,103,4.9,5.8,16,0.00,,,0.00,VWS V13.01,2013-09-25 21:18:00,
2013-09-25 17:24:00,73.8,24.8,29.12,ESE,108,5.8,5.8,16,0.00,,,0.00,VWS V13.01,2013-09-25 21:24:00,
2013-09-25 17:29:00,73.8,24.8,29.15,ENE,69,3.1,5.4,16,0.00,,,0.00,VWS V13.01,2013-09-25 21:29:00,
2013-09-25 17:34:00,73.6,24.7,29.15,East,93,5.8,6.3,16,0.00,,,0.00,VWS V13.01,2013-09-25 21:34:00,
2013-09-25 17:39:00,73.4,24.5,29.15,ESE,104,7.2,8.1,16,0.00,,,0.00,VWS V13.01,2013-09-25 21:39:00,
2013-09-25 17:44:00,73.2,24.4,29.12,ESE,106,3.6,7.6,16,0.00,,,0.00,VWS V13.01,2013-09-25 21:44:00,
2013-09-25 17:48:00,73.2,24.4,29.12,East,87,2.7,5.8,16,0.00,,,0.00,VWS V13.01,2013-09-25 21:48:00,
2013-09-25 17:54:00,73.2,24.4,29.12,East,97,5.8,5.8,16,0.00,,,0.00,VWS V13.01,2013-09-25 21:54:00,
2013-09-25 17:59:00,73.0,28.4,29.15,ESE,105,2.7,6.3,19,0.00,,,0.00,VWS V13.01,2013-09-25 21:59:00,
2013-09-25 18:04:00,73.0,28.4,29.15,ENE,75,4.5,6.7,19,0.00,,,0.00,VWS V13.01,2013-09-25 22:04:00,
2013-09-25 18:09:00,73.0,28.4,29.15,East,93,3.6,7.6,19,0.00,,,0.00,VWS V13.01,2013-09-25 22:09:00,
2013-09-25 18:14:00,73.0,28.4,29.12,NNE,27,0.0,5.4,19,0.00,,,0.00,VWS V13.01,2013-09-25 22:14:00,
2013-09-25 18:19:00,73.4,27.4,29.12,East,87,5.8,5.8,18,0.00,,,0.00,VWS V13.01,2013-09-25 22:19:00,
2013-09-25 18:24:00,73.4,27.4,29.12,SSE,155,0.0,4.9,18,0.00,,,0.00,VWS V13.01,2013-09-25 22:24:00,
2013-09-25 18:29:00,73.4,27.4,29.15,SSE,151,3.1,3.1,18,0.00,,,0.00,VWS V13.01,2013-09-25 22:29:00,
2013-09-25 18:34:00,73.4,31.1,29.15,SSE,151,0.0,2.2,21,0.00,,,0.00,VWS V13.01,2013-09-25 22:34:00,
2013-09-25 18:39:00,73.2,31.0,29.15,SSE,151,0.0,0.0,21,0.00,,,0.00,VWS V13.01,2013-09-25 22:39:00,
2013-09-25 18:44:00,73.2,31.0,29.15,SSE,151,0.0,0.0,21,0.00,,,0.00,VWS V13.01,2013-09-25 22:44:00,
2013-09-25 18:49:00,73.0,32.0,29.15,SSE,151,0.0,0.0,22,0.00,,,0.00,VWS V13.01,2013-09-25 22:49:00,
2013-09-25 18:54:00,72.9,31.8,29.15,ESE,123,0.0,0.0,22,0.00,,,0.00,VWS V13.01,2013-09-25 22:54:00,
2013-09-25 18:59:00,72.7,31.7,29.15,SE,124,0.0,2.7,22,0.00,,,0.00,VWS V13.01,2013-09-25 22:59:00,
2013-09-25 19:04:00,72.1,31.2,29.15,ESE,105,0.0,3.1,22,0.00,,,0.00,VWS V13.01,2013-09-25 23:04:00,
2013-09-25 19:09:00,71.8,30.9,29.15,SE,140,0.0,0.0,22,0.00,,,0.00,VWS V13.01,2013-09-25 23:09:00,
2013-09-25 19:14:00,71.2,32.6,29.15,SE,141,0.0,3.1,24,0.00,,,0.00,VWS V13.01,2013-09-25 23:14:00,
2013-09-25 19:19:00,70.7,32.2,29.15,SE,141,0.0,0.0,24,0.00,,,0.00,VWS V13.01,2013-09-25 23:19:00,
2013-09-25 19:24:00,70.2,32.7,29.15,SE,141,0.0,0.0,25,0.00,,,0.00,VWS V13.01,2013-09-25 23:24:00,
2013-09-25 19:29:00,70.2,33.7,29.15,ENE,61,0.0,0.0,26,0.00,,,0.00,VWS V13.01,2013-09-25 23:29:00,
2013-09-25 19:34:00,70.0,32.6,29.15,East,90,3.6,3.6,25,0.00,,,0.00,VWS V13.01,2013-09-25 23:34:00,
2013-09-25 19:40:00,69.8,32.4,29.15,SE,137,0.0,2.7,25,0.00,,,0.00,VWS V13.01,2013-09-25 23:40:00,
2013-09-25 19:45:00,69.3,34.8,29.15,SE,144,3.6,3.6,28,0.00,,,0.00,VWS V13.01,2013-09-25 23:45:00,
2013-09-25 19:49:00,68.5,37.5,29.15,SE,137,0.0,4.0,32,0.00,,,0.00,VWS V13.01,2013-09-25 23:49:00,
2013-09-25 19:54:00,67.8,38.5,29.15,SE,127,0.0,3.1,34,0.00,,,0.00,VWS V13.01,2013-09-25 23:54:00,
2013-09-25 19:59:00,67.5,38.1,29.15,SE,127,0.0,0.0,34,0.00,,,0.00,VWS V13.01,2013-09-25 23:59:00,
2013-09-25 20:04:00,67.1,38.6,29.15,SE,127,0.0,0.0,35,0.00,,,0.00,VWS V13.01,2013-09-26 00:04:00,
2013-09-25 20:09:00,66.9,39.8,29.15,SE,127,0.0,3.1,37,0.00,,,0.00,VWS V13.01,2013-09-26 00:09:00,
2013-09-25 20:14:00,66.7,41.0,29.15,ENE,78,3.1,3.6,39,0.00,,,0.00,VWS V13.01,2013-09-26 00:14:00,
2013-09-25 20:20:00,67.1,41.3,29.15,ESE,116,0.0,3.6,39,0.00,,,0.00,VWS V13.01,2013-09-26 00:20:00,
2013-09-25 20:25:00,67.3,40.1,29.15,ESE,117,0.0,3.6,37,0.00,,,0.00,VWS V13.01,2013-09-26 00:25:00,
2013-09-25 20:30:00,67.5,39.6,29.15,SSE,154,2.7,4.0,36,0.00,,,0.00,VWS V13.01,2013-09-26 00:30:00,
2013-09-25 20:35:00,67.3,39.4,29.15,ESE,118,0.0,2.7,36,0.00,,,0.00,VWS V13.01,2013-09-26 00:35:00,
2013-09-25 20:40:00,67.3,39.4,29.15,SE,135,0.0,2.7,36,0.00,,,0.00,VWS V13.01,2013-09-26 00:40:00,
2013-09-25 20:45:00,67.3,39.4,29.15,ESE,104,3.1,3.6,36,0.00,,,0.00,VWS V13.01,2013-09-26 00:45:00,
2013-09-25 20:50:00,67.5,39.6,29.15,SSE,148,0.0,4.0,36,0.00,,,0.00,VWS V13.01,2013-09-26 00:50:00,
2013-09-25 20:55:00,67.1,39.3,29.15,SSE,151,0.0,3.1,36,0.00,,,0.00,VWS V13.01,2013-09-26 00:55:00,
2013-09-25 21:00:00,66.9,40.5,29.15,SE,128,0.0,5.4,38,0.00,,,0.00,VWS V13.01,2013-09-26 01:00:00,
2013-09-25 21:05:00,66.6,40.2,29.15,East,97,3.1,4.9,38,0.00,,,0.00,VWS V13.01,2013-09-26 01:05:00,
2013-09-25 21:10:00,66.4,42.0,29.15,ESE,113,2.7,3.6,41,0.00,,,0.00,VWS V13.01,2013-09-26 01:10:00,
2013-09-25 21:15:00,66.2,42.5,29.15,SE,135,2.2,2.7,42,0.00,,,0.00,VWS V13.01,2013-09-26 01:15:00,
2013-09-25 21:20:00,66.2,42.5,29.15,SE,136,2.2,3.6,42,0.00,,,0.00,VWS V13.01,2013-09-26 01:20:00,
2013-09-25 21:25:00,66.4,42.0,29.15,SSE,158,2.7,3.1,41,0.00,,,0.00,VWS V13.01,2013-09-26 01:25:00,
2013-09-25 21:30:00,66.4,42.6,29.15,SE,137,0.0,2.7,42,0.00,,,0.00,VWS V13.01,2013-09-26 01:30:00,
2013-09-25 21:35:00,66.2,42.5,29.15,SE,137,0.0,0.0,42,0.00,,,0.00,VWS V13.01,2013-09-26 01:35:00,
2013-09-25 21:40:00,66.0,42.9,29.15,SE,131,2.7,3.1,43,0.00,,,0.00,VWS V13.01,2013-09-26 01:40:00,
2013-09-25 21:45:00,66.0,42.9,29.18,SE,139,0.0,4.0,43,0.00,,,0.00,VWS V13.01,2013-09-26 01:45:00,
2013-09-25 21:50:00,65.8,42.1,29.18,SE,139,0.0,0.0,42,0.00,,,0.00,VWS V13.01,2013-09-26 01:50:00,
2013-09-25 21:55:00,65.5,41.8,29.18,SE,139,0.0,0.0,42,0.00,,,0.00,VWS V13.01,2013-09-26 01:55:00,
2013-09-25 22:00:00,65.3,41.6,29.15,SE,139,0.0,0.0,42,0.00,,,0.00,VWS V13.01,2013-09-26 02:00:00,
2013-09-25 22:05:00,64.9,41.3,29.15,SE,139,0.0,0.0,42,0.00,,,0.00,VWS V13.01,2013-09-26 02:05:00,
2013-09-25 22:10:00,64.6,41.6,29.15,SE,139,0.0,0.0,43,0.00,,,0.00,VWS V13.01,2013-09-26 02:10:00,
2013-09-25 22:15:00,64.4,41.4,29.18,SE,139,0.0,0.0,43,0.00,,,0.00,VWS V13.01,2013-09-26 02:15:00,
2013-09-25 22:20:00,64.2,41.9,29.18,SE,139,0.0,0.0,44,0.00,,,0.00,VWS V13.01,2013-09-26 02:20:00,
2013-09-25 22:25:00,64.2,41.9,29.18,SE,139,0.0,0.0,44,0.00,,,0.00,VWS V13.01,2013-09-26 02:25:00,
2013-09-25 22:30:00,64.0,41.7,29.18,SE,139,0.0,0.0,44,0.00,,,0.00,VWS V13.01,2013-09-26 02:30:00,
2013-09-25 22:35:00,64.0,42.3,29.18,SE,139,0.0,0.0,45,0.00,,,0.00,VWS V13.01,2013-09-26 02:35:00,
2013-09-25 22:40:00,63.9,42.1,29.18,SE,139,0.0,2.2,45,0.00,,,0.00,VWS V13.01,2013-09-26 02:40:00,
2013-09-25 22:45:00,63.9,42.7,29.18,SE,139,0.0,2.2,46,0.00,,,0.00,VWS V13.01,2013-09-26 02:45:00,
2013-09-25 22:51:00,63.9,42.7,29.18,SE,139,0.0,0.0,46,0.00,,,0.00,VWS V13.01,2013-09-26 02:51:00,
2013-09-25 22:56:00,63.9,43.3,29.18,SE,138,0.0,3.6,47,0.00,,,0.00,VWS V13.01,2013-09-26 02:56:00,
2013-09-25 23:01:00,64.0,43.4,29.18,SE,138,0.0,0.0,47,0.00,,,0.00,VWS V13.01,2013-09-26 03:01:00,
2013-09-25 23:06:00,64.0,44.0,29.18,SE,138,0.0,0.0,48,0.00,,,0.00,VWS V13.01,2013-09-26 03:06:00,
2013-09-25 23:11:00,64.0,44.0,29.18,SE,138,0.0,0.0,48,0.00,,,0.00,VWS V13.01,2013-09-26 03:11:00,
2013-09-25 23:16:00,63.9,43.8,29.18,SE,138,0.0,0.0,48,0.00,,,0.00,VWS V13.01,2013-09-26 03:16:00,
2013-09-25 23:21:00,63.7,43.6,29.18,SE,138,0.0,0.0,48,0.00,,,0.00,VWS V13.01,2013-09-26 03:21:00,
2013-09-25 23:26:00,63.7,43.6,29.18,SE,138,0.0,0.0,48,0.00,,,0.00,VWS V13.01,2013-09-26 03:26:00,
2013-09-25 23:31:00,63.7,44.2,29.18,SE,138,0.0,0.0,49,0.00,,,0.00,VWS V13.01,2013-09-26 03:31:00,
2013-09-25 23:36:00,63.5,44.0,29.18,SE,138,0.0,0.0,49,0.00,,,0.00,VWS V13.01,2013-09-26 03:36:00,
2013-09-25 23:41:00,63.3,43.8,29.18,SE,138,0.0,0.0,49,0.00,,,0.00,VWS V13.01,2013-09-26 03:41:00,
2013-09-25 23:46:00,63.3,43.8,29.18,SE,138,0.0,0.0,49,0.00,,,0.00,VWS V13.01,2013-09-26 03:46:00,
2013-09-25 23:51:00,63.3,44.4,29.18,SE,138,0.0,0.0,50,0.00,,,0.00,VWS V13.01,2013-09-26 03:51:00,
2013-09-25 23:56:00,63.1,44.2,29.18,SE,138,0.0,0.0,50,0.00,,,0.00,VWS V13.01,2013-09-26 03:56:00,